Home   Weather   Downey   Past weeks

Flag for USA Past Weather in Downey, California, USA — Yesterday and Last 2 Weeks

Now
77 °F

Sunny.


Feels Like: 77 °F
Forecast: 63 / 84 °F
Wind: 26 mph from Northwest

Location: Long Beach Airport

Current Time: Apr 28, 2017 at 4:58:06 pm

Latest Report: Apr 28, 2017 at 3:53 pm


Visibility: 10 mi

Pressure: 29.71 "Hg

Humidity: 26%

Dew Point: 39 °F

Location of DowneyLocation

Past Weather in Downey — Graph

°F

Downey Temperature Yesterday

Maximum temperature yesterday: 80 °F (at 4:53 pm)
Minimum temperature yesterday: 58 °F (at 2:53 am)
Average temperature yesterday: 68 °F

High & Low Weather Summary for the Past Weeks

 TemperatureHumidityPressure
High85 °F (Apr 21, 3:53 pm)90% (Apr 20, 6:18 am)30.13 "Hg (Apr 20, 6:18 am)
Low51 °F (Apr 15, 5:53 am)16% (Apr 28, 1:53 pm)29.70 "Hg (Apr 27, 6:53 pm)
Average66 °F60%29.94 "Hg
* Reported Apr 13 2:53 pm — Apr 28 2:53 pm, Downey, Weather by CustomWeather, © 2017

Note: Actual official high and low records may vary slightly from our data, if they occured in-between our weather recording intervals... More about our weather records

Advertising

Downey Weather History for the Previous 24 Hours

Scroll right to see more
 ConditionsComfort  
Time TempWeatherWind HumidityBarometerVisibility
2:53 pm
Fri, Apr 28
79 °FSunny.18 mph20%29.73 "Hg10 mi
1:53 pm82 °FSunny.14 mph16%29.74 "Hg10 mi
12:53 pm74 °FSunny.8 mph46%29.77 "Hg10 mi
11:53 am70 °FSunny.10 mph57%29.80 "Hg9 mi
10:53 am70 °FSunny.8 mph57%29.80 "Hg10 mi
9:53 am68 °FSunny.7 mph61%29.80 "Hg9 mi
8:53 am67 °FSunny.6 mph63%29.80 "Hg9 mi
7:53 am64 °FSunny.7 mph75%29.80 "Hg6 mi
6:53 am61 °FSunny.6 mph83%29.78 "Hg6 mi
5:53 am61 °FClear.5 mph75%29.74 "Hg10 mi
4:53 am62 °FClear.7 mph67%29.72 "Hg10 mi
3:53 am63 °FClear.9 mph68%29.72 "Hg10 mi
2:53 am63 °FClear.12 mph73%29.71 "Hg10 mi
1:53 am66 °FClear.8 mph56%29.72 "Hg10 mi
12:53 am74 °FClear.16 mph18%29.71 "Hg10 mi
11:53 pm
Thu, Apr 27
76 °FClear.23 mph17%29.71 "Hg10 mi
10:53 pm77 °FClear.17 mph17%29.72 "Hg9 mi
9:53 pm76 °FClear.17 mph19%29.72 "Hg10 mi
9:39 pm74 °FClear.13 mph23%29.73 "Hg10 mi
8:53 pm71 °FClear.13 mph38%29.72 "Hg10 mi
7:53 pm71 °FClear.12 mph42%29.70 "Hg10 mi
6:53 pm74 °FSunny.15 mph36%29.70 "Hg10 mi
5:53 pm79 °FSunny.12 mph29%29.71 "Hg10 mi
4:53 pm80 °FSunny.17 mph27%29.71 "Hg10 mi
Weather by CustomWeather, © 2017

See weather overviewHow to use our weather pages